Theta_e
323 323 323 323 324 325 325 325 324 325 328 329 329 330 331 331 331 331 332 332 330 330 331 334 337 337 337 337 337 337 338 338 340 339 337 337 336 334 334 335 333 333 334 333 335 337 339 341 339 338 340 341 338 338 341 341 341 340 341 342 342 340 342
321 322 323 324 323 324 325 325 325 326 325 328 328 329 330 330 330 331 332 331 329 329 331 334 341 339 338 338 339 339 337 334 340 339 337 336 338 335 335 335 336 335 334 335 337 339 341 341 339 338 340 341 336 337 340 342 341 339 340 341 340 342 340
319 320 321 322 323 323 324 324 325 326 326 328 330 329 329 330 331 330 329 329 328 328 331 333 336 338 338 337 336 336 337 334 336 334 332 333 336 337 337 336 336 337 338 339 339 340 342 340 339 339 339 339 339 339 339 340 343 340 336 336 341 341 340
318 319 320 321 321 321 322 323 326 325 327 328 328 329 328 330 330 328 328 328 328 328 328 329 330 335 337 337 336 335 336 334 334 335 335 334 334 336 335 335 337 337 337 337 338 339 340 341 340 339 342 340 339 339 339 339 341 341 340 339 339 340 340
318 319 320 321 321 321 321 320 325 324 325 327 328 331 329 329 328 327 327 330 328 326 327 328 330 333 336 336 336 337 337 335 335 335 335 335 336 334 334 334 334 335 336 338 339 340 338 338 339 341 337 333 334 338 339 339 339 340 340 339 337 337 340
318 318 318 319 319 319 320 321 324 324 325 326 327 328 328 329 329 328 328 327 327 328 326 326 327 332 332 333 334 336 335 333 333 335 334 334 333 332 332 333 333 334 335 335 338 337 337 337 337 337 337 338 336 337 338 338 339 340 341 340 339 340 340
318 318 318 319 320 320 320 320 323 325 326 328 329 333 331 330 328 328 328 327 327 325 325 324 327 329 330 332 332 332 330 331 331 330 331 331 331 332 331 332 334 333 334 335 334 335 335 335 335 336 337 337 339 339 339 338 337 338 339 338 338 339 339
319 319 319 320 320 319 321 322 324 326 328 328 329 330 330 330 329 329 328 327 326 325 324 324 328 329 331 331 331 329 328 328 328 329 330 330 329 331 331 331 332 333 334 333 334 334 334 334 335 336 336 335 336 338 337 336 337 337 338 337 337 337 339
320 320 320 319 319 320 322 323 324 325 327 328 328 327 328 328 328 328 328 327 326 325 323 325 328 330 330 329 328 328 328 328 327 328 328 328 328 328 329 331 332 335 333 332 332 334 334 335 336 336 335 334 334 334 334 336 336 338 337 337 336 335 337
318 318 319 320 319 321 322 325 324 326 326 326 325 326 327 327 327 327 327 328 326 325 324 327 328 330 329 328 327 327 326 326 327 326 327 326 327 327 328 330 331 334 332 332 333 333 335 336 336 336 334 333 335 335 334 334 335 335 336 336 334 334 334
319 319 319 319 321 322 322 324 323 323 323 324 325 326 326 326 326 327 327 327 326 325 325 327 329 329 328 326 325 325 325 325 326 326 326 326 327 327 329 330 332 334 334 333 333 334 335 335 335 334 334 334 334 333 334 334 334 333 335 335 337 338 337
319 319 319 320 320 321 322 323 322 322 324 324 325 325 325 325 326 326 326 326 328 325 324 326 328 329 327 326 324 324 324 325 326 326 326 327 327 328 329 331 332 334 335 335 334 335 335 335 334 335 334 335 336 334 332 334 333 333 333 334 336 336 336
319 319 319 319 320 320 321 321 322 323 324 324 325 325 325 326 326 326 326 325 327 325 325 326 327 325 325 325 324 323 324 325 326 326 326 326 327 328 329 330 332 335 336 337 338 336 335 335 335 335 334 335 336 335 333 333 333 333 334 335 336 335 335
326 318 319 319 320 320 320 320 321 321 322 324 325 326 326 326 326 326 326 325 325 325 327 330 326 323 324 324 325 324 325 325 326 327 327 328 328 328 328 330 331 333 336 338 337 337 336 334 334 333 333 334 335 336 336 334 333 333 334 335 336 337 336
315 317 318 319 318 319 320 320 320 321 322 325 324 324 324 324 324 324 323 324 323 323 322 327 324 323 323 324 324 325 325 326 328 328 328 328 327 327 327 328 329 331 333 335 336 337 336 335 334 332 331 332 333 334 335 336 335 336 335 333 333 334 335
315 316 317 317 318 318 319 320 321 321 323 322 322 322 323 322 322 322 322 321 322 321 322 325 323 322 323 323 325 325 327 327 329 329 327 326 326 325 326 327 328 330 332 334 335 335 335 334 334 332 331 331 332 333 334 335 335 331 321 323 327 329 331
314 316 317 317 317 318 318 319 321 322 321 321 321 321 321 320 320 321 322 322 322 321 322 322 321 321 322 323 324 326 327 328 328 326 325 325 325 325 326 327 328 329 331 332 333 333 333 334 332 331 331 331 331 331 332 333 333 324 321 325 326 326 327
312 314 316 317 317 317 317 320 320 320 320 321 321 321 320 320 320 320 320 320 320 321 323 322 322 322 322 323 324 326 327 328 326 325 325 324 324 324 325 327 328 328 328 329 330 331 333 331 331 331 330 331 330 330 332 333 326 319 320 323 324 326 328
313 315 316 315 316 318 319 320 319 320 321 321 321 321 321 321 320 320 320 319 320 322 322 323 323 322 323 323 323 325 325 327 327 326 325 324 324 324 325 326 327 327 327 327 329 331 330 329 329 330 329 330 330 331 331 332 323 318 319 321 321 323 327
314 315 316 316 317 318 318 319 320 322 322 322 323 323 324 325 321 320 321 323 323 321 321 320 320 320 322 322 322 323 324 325 326 326 325 325 325 324 324 325 326 327 327 329 330 328 327 329 328 328 328 329 330 330 331 332 320 317 317 317 318 321 326
314 316 316 316 317 318 319 319 320 320 322 323 325 325 324 322 325 325 323 322 322 322 320 319 319 319 320 321 322 321 321 321 321 323 325 325 325 325 325 326 326 326 326 327 326 326 327 328 328 329 330 329 331 331 330 332 318 316 316 315 316 319 329
315 318 318 318 318 319 319 319 320 321 322 326 329 326 323 323 324 322 321 320 320 320 320 319 318 318 318 321 321 321 321 320 321 323 325 326 326 326 326 326 326 325 325 327 327 329 329 330 328 328 328 328 331 331 328 330 319 315 315 314 316 321 333
318 317 319 318 319 319 321 321 321 322 327 325 324 324 324 324 324 322 321 319 320 320 318 318 317 318 319 323 320 321 321 321 321 323 325 326 326 326 326 325 325 325 326 325 326 327 329 329 327 329 328 328 330 329 329 328 322 314 313 313 315 324 333
318 319 320 320 320 321 322 322 323 325 326 323 323 324 324 325 324 323 321 321 320 319 319 318 318 319 321 321 320 320 319 321 322 322 324 325 326 326 326 326 325 324 326 325 325 326 329 329 328 329 328 329 329 330 330 330 322 312 312 313 315 321 331
319 320 320 320 320 320 322 322 323 326 327 322 322 323 324 324 323 321 321 322 321 321 319 319 319 320 320 319 319 319 320 322 322 322 323 325 327 327 326 326 325 326 325 323 324 325 328 330 328 328 327 329 330 331 330 330 325 315 311 312 313 323 330
317 318 319 319 319 321 322 325 328 323 321 322 322 323 325 325 323 325 323 323 322 320 319 320 321 321 321 320 320 321 323 322 323 323 324 325 327 328 327 328 326 323 322 322 322 323 326 326 327 327 327 329 329 330 330 331 329 325 310 310 313 316 328
319 319 318 319 321 331 322 321 320 319 320 320 322 324 324 322 321 323 328 327 322 323 323 323 322 322 321 321 320 321 321 322 322 323 325 326 326 328 329 325 323 323 322 323 323 321 323 325 326 327 327 328 330 329 329 333 330 328 311 310 311 314 320
318 318 319 327 331 326 318 320 319 320 322 322 323 324 322 321 321 323 322 321 321 322 323 324 324 323 320 319 319 321 322 321 323 326 327 328 328 326 325 323 323 324 324 324 322 320 319 321 324 327 326 327 329 329 327 332 331 327 321 310 308 309 313
314 317 320 322 322 328 320 318 319 320 321 322 323 324 322 321 321 322 324 321 323 324 324 326 325 323 321 320 321 322 322 321 321 324 327 329 328 324 322 322 323 323 324 323 322 320 317 317 319 319 321 324 326 328 327 328 329 323 326 314 307 306 309
314 317 318 319 319 322 326 318 318 317 317 319 321 320 321 322 322 323 324 321 323 322 323 324 324 322 321 323 321 319 318 320 323 319 319 321 323 322 321 322 323 323 322 321 321 318 317 315 315 314 315 319 323 326 327 328 327 326 323 322 311 307 305
314 315 314 314 317 324 322 317 317 318 318 318 320 320 321 322 321 325 324 322 324 324 324 325 324 323 321 320 317 317 318 318 317 318 317 317 318 320 320 320 320 319 319 320 319 317 316 315 315 313 314 318 322 322 324 327 326 326 325 324 321 313 308
314 314 314 314 317 324 319 319 319 318 318 319 320 321 324 322 321 320 322 321 322 323 322 324 324 322 320 318 317 316 317 317 317 317 317 318 318 320 319 319 319 317 317 317 317 317 317 316 316 314 314 315 319 321 322 324 324 323 325 328 326 322 314
313 314 314 315 318 325 317 317 317 318 319 319 319 323 324 322 321 322 322 323 324 323 322 323 323 324 321 316 315 315 317 320 317 317 316 315 315 314 316 316 315 315 315 314 314 316 316 317 316 314 313 315 317 321 322 322 322 323 325 326 327 327 323
314 317 315 316 319 322 316 316 316 317 318 319 319 322 323 323 322 322 321 322 322 320 320 324 323 320 316 315 316 318 319 318 329 321 312 313 314 313 314 315 316 314 314 313 316 316 316 315 315 313 313 313 317 318 320 321 321 320 319 320 319 323 327
317 318 319 319 320 321 317 317 318 317 319 319 319 319 319 320 322 322 320 318 319 318 320 321 326 320 314 316 316 316 323 315 319 316 313 312 314 315 314 315 317 315 315 316 319 317 316 316 314 316 314 316 316 317 320 320 319 320 311 314 304 307 315
319 319 319 320 321 319 318 321 318 318 319 319 318 318 318 319 319 319 322 319 320 320 317 322 320 319 316 315 313 315 320 316 314 315 315 315 314 314 315 326 312 311 315 316 318 312 304 303 313 315 315 317 317 317 319 318 318 304 297 296 296 297 295
319 318 318 319 318 318 318 318 321 320 319 319 319 319 321 321 321 320 321 320 320 320 319 320 319 318 315 316 314 317 319 316 315 316 315 314 314 313 315 316 316 307 306 310 313 305 299 297 294 296 300 311 315 313 304 301 297 295 294 294 294 293 293
318 319 319 319 318 317 317 318 319 319 319 319 319 319 318 321 321 319 321 321 319 319 317 317 318 317 316 315 314 322 328 316 317 319 317 315 314 314 315 313 313 315 309 305 305 303 299 298 298 296 294 295 298 304 312 305 297 293 295 294 294 294 293
Wind_Speed
5 6 4 5 5 5 5 4 3 3 4 4 3 3 2 1 2 3 2 2 3 5 6 5 4 3 3 5 6 5 5 2 1 1 2 4 5 5 4 3 3 5 5 5 7 7 7 3 1 4 9 4 3 8 10 6 4 7 7 6 6 9 11
6 6 5 4 5 4 4 4 4 3 4 3 3 3 1 2 3 3 1 0 2 3 4 4 5 4 4 5 5 5 2 2 3 4 4 1 2 3 5 5 6 6 6 6 7 7 7 5 5 5 8 6 9 11 10 8 7 7 7 9 10 10 7
6 5 6 5 5 5 5 4 3 3 4 3 2 2 1 3 3 3 2 2 1 3 4 5 6 6 5 5 4 6 1 2 3 4 6 3 5 5 5 5 7 7 7 7 6 7 5 7 7 8 8 10 9 9 9 9 8 8 8 8 8 9 10
7 7 7 6 6 6 6 5 4 3 4 3 2 2 2 2 2 3 3 2 1 1 3 5 6 6 5 5 5 5 5 3 2 5 5 4 4 4 5 5 5 5 5 6 6 6 5 5 7 7 9 9 9 10 10 10 10 9 8 8 8 9 11
7 6 5 6 6 5 3 3 5 5 4 3 3 2 3 2 1 2 2 1 1 1 3 3 4 3 4 4 4 4 4 3 4 4 5 5 4 3 5 6 6 6 6 6 6 6 5 6 7 7 6 8 11 12 12 11 10 10 10 10 10 10 9
9 7 7 6 5 3 3 5 7 6 5 4 4 3 3 2 2 3 1 2 2 2 3 3 4 4 4 4 3 4 3 3 3 3 3 4 5 5 5 6 5 6 7 7 7 7 6 6 7 7 9 8 9 13 12 12 11 10 10 9 9 9 8
8 7 6 5 4 4 5 5 5 5 5 4 3 3 2 2 3 1 1 2 2 3 3 3 3 3 3 4 4 3 3 4 4 4 3 3 4 5 6 6 7 6 6 6 7 7 7 8 8 8 8 10 11 11 12 12 12 10 9 9 10 9 9
7 6 5 5 4 5 5 5 5 5 4 3 3 3 3 2 2 1 1 1 2 3 3 2 3 3 4 3 4 4 3 3 3 4 3 3 4 5 5 6 6 6 6 6 6 5 7 7 7 7 8 9 10 11 11 12 13 11 9 9 10 10 8
6 7 7 6 5 5 5 6 6 6 6 5 4 3 3 3 2 1 0 0 2 2 3 2 3 3 3 3 4 6 4 3 3 4 5 5 5 5 6 6 6 6 5 6 6 6 6 6 6 6 8 8 10 11 11 12 13 12 9 7 7 8 8
7 5 4 4 4 3 5 4 4 3 3 3 3 3 3 3 2 1 0 1 2 2 1 1 2 2 3 3 4 5 6 5 4 4 5 6 5 6 6 6 6 6 5 6 6 7 7 6 6 6 6 8 9 9 11 12 12 12 9 8 8 10 10
6 6 5 4 4 5 4 4 4 4 3 3 3 3 3 3 2 1 0 0 2 1 1 1 1 1 2 2 4 6 6 7 6 5 6 6 6 7 6 6 7 6 6 6 6 6 7 7 6 7 7 8 8 9 10 9 8 10 11 8 7 8 8
6 6 6 6 5 4 5 5 3 1 1 2 3 2 2 2 2 1 1 1 2 1 2 1 1 1 1 2 3 5 6 7 6 6 6 6 7 7 7 6 7 7 7 6 7 7 6 7 7 7 8 9 10 8 9 8 8 9 7 8 8 7 8
6 7 7 7 6 4 1 1 2 2 2 2 2 2 3 3 2 1 0 2 3 2 2 2 1 2 2 2 3 4 6 6 7 6 6 6 7 7 7 6 6 7 7 7 7 7 7 7 7 7 7 9 9 8 7 7 7 8 9 8 8 9 9
6 3 3 3 3 4 4 3 3 3 3 3 3 3 3 2 2 0 0 2 3 3 2 2 2 3 2 2 4 4 6 6 6 6 6 6 6 6 7 6 6 6 6 6 7 7 6 7 7 7 7 8 8 8 6 7 9 10 9 8 8 9 10
4 4 4 5 4 4 4 4 4 4 4 4 3 3 2 1 0 0 1 2 3 3 3 3 3 3 3 3 4 5 5 6 5 5 5 6 6 6 6 7 6 6 6 6 6 6 6 6 6 7 8 7 7 7 7 6 8 7 4 5 8 9 10
6 6 6 6 6 6 6 6 5 5 4 4 3 2 2 0 1 0 1 2 3 3 3 3 3 3 4 4 5 5 5 5 5 4 4 5 5 6 6 6 7 7 7 7 7 7 7 6 6 6 7 8 7 7 7 6 5 6 10 9 6 7 9
6 7 6 7 7 8 7 6 6 5 4 4 3 3 2 1 2 2 2 2 3 4 4 3 4 4 4 5 5 5 5 5 4 4 4 4 5 5 6 6 7 8 8 7 7 7 6 5 7 7 7 7 7 7 7 6 6 11 13 13 14 10 10
7 7 9 9 9 8 6 6 6 5 5 4 4 4 3 3 3 3 3 3 4 4 3 4 4 5 5 5 5 5 5 5 4 4 5 4 4 5 5 6 6 7 7 8 9 7 6 6 6 7 6 6 7 7 7 7 10 13 12 14 15 16 11
8 9 10 10 9 7 6 7 6 6 5 4 5 4 4 5 4 4 4 4 5 3 3 4 4 5 5 5 4 5 4 4 4 4 5 6 5 5 5 6 7 7 7 8 8 7 7 7 5 7 7 6 7 8 7 6 12 14 16 16 15 15 13
9 9 9 8 7 7 6 6 5 6 7 6 5 5 6 7 5 5 5 5 4 4 4 4 4 3 5 4 4 5 4 4 4 4 5 6 5 5 5 6 7 7 6 7 7 6 7 8 6 6 6 6 6 7 7 6 12 16 16 17 18 16 11
8 8 9 7 6 6 7 8 7 5 5 5 6 4 5 5 5 4 4 4 5 4 4 4 3 4 4 4 5 4 4 4 3 4 5 5 5 5 6 6 7 8 7 6 7 6 7 8 6 6 6 6 5 5 7 6 12 16 17 17 17 17 11
8 8 8 9 10 9 8 7 9 8 8 6 5 5 6 6 5 4 5 4 4 4 4 4 3 4 4 4 4 4 4 4 4 5 5 5 5 5 6 6 7 8 7 7 6 5 5 6 4 5 5 5 5 5 6 6 12 16 17 18 19 18 7
9 9 9 8 8 9 9 9 8 8 7 6 6 5 6 5 4 4 4 4 5 4 5 4 4 4 4 5 5 5 5 4 4 5 6 5 5 5 6 6 8 8 6 6 6 5 5 5 4 4 5 4 4 6 6 6 10 15 17 18 20 15 7
6 7 8 7 5 5 6 6 6 6 7 6 6 6 5 4 4 4 4 5 5 4 4 4 5 5 5 5 6 6 5 5 4 5 6 6 6 6 6 5 5 6 5 5 7 7 5 5 4 4 5 3 4 5 6 6 8 14 16 18 21 16 10
6 7 8 8 8 7 7 7 8 7 4 4 4 6 5 5 5 5 6 4 4 4 4 5 5 4 5 6 5 5 5 5 5 5 5 5 6 5 5 5 6 7 6 4 4 6 5 4 3 3 4 4 2 5 6 5 7 12 14 17 19 16 10
5 6 5 4 4 7 8 6 4 4 5 5 7 5 5 5 4 5 4 5 4 4 5 6 6 5 5 5 5 4 5 5 5 6 5 5 5 5 4 4 5 5 6 6 4 7 5 3 2 3 4 5 4 4 4 4 5 7 12 13 16 16 11
9 9 8 6 5 7 6 6 6 8 8 7 6 5 5 4 4 5 5 5 4 5 6 6 5 5 5 4 4 4 5 5 4 5 6 4 4 5 5 4 5 6 5 7 7 6 6 3 3 3 4 4 4 4 4 3 4 4 9 11 13 16 14
4 3 4 7 9 7 5 4 4 4 4 4 5 6 5 5 4 5 5 4 5 7 6 4 5 5 4 4 4 5 5 4 5 4 3 4 4 4 6 6 5 5 5 6 5 4 4 4 3 4 4 3 3 3 3 4 4 4 6 8 8 10 12
6 7 7 5 5 4 6 5 5 6 7 6 6 5 5 5 5 6 4 5 8 7 5 5 5 5 4 4 4 5 4 4 4 4 3 3 4 4 5 6 6 7 5 5 5 4 3 3 3 3 3 3 3 4 3 3 3 5 5 5 6 6 7
5 6 6 7 8 7 7 6 6 7 6 6 5 4 4 5 7 6 5 8 8 4 4 4 3 4 4 4 4 4 4 4 4 3 4 4 4 4 4 5 5 6 4 3 4 4 4 3 3 3 4 4 3 4 3 2 3 2 4 5 5 6 7
11 11 10 10 9 8 7 9 9 7 5 5 5 5 4 5 6 6 5 5 4 4 4 4 4 5 4 4 4 3 3 3 3 3 3 3 2 2 3 4 4 4 5 4 4 4 4 2 1 2 3 3 4 5 4 3 3 3 3 3 3 5 6
8 7 7 6 5 6 7 5 5 5 6 7 7 6 6 5 6 6 6 3 3 4 4 4 4 4 3 4 3 2 2 3 2 2 3 3 2 1 2 2 3 3 5 4 5 4 4 3 1 2 2 3 4 4 5 4 4 4 4 4 3 2 4
8 8 7 7 6 7 5 6 6 7 7 8 6 6 6 6 5 7 5 4 6 6 4 4 4 4 3 3 2 3 1 1 0 1 3 3 3 3 3 3 3 3 4 4 5 5 4 4 2 2 2 3 4 3 3 4 4 4 4 4 4 2 1
7 4 5 6 6 6 6 6 7 7 6 5 5 4 5 4 4 3 2 4 5 5 2 3 4 4 4 2 1 1 0 0 2 1 3 3 2 4 5 5 3 3 4 4 4 5 7 7 5 4 3 4 4 3 3 4 4 4 4 4 4 4 3
5 5 5 5 6 8 10 9 8 6 4 6 5 4 4 4 4 3 2 3 3 2 1 3 3 4 3 1 1 2 1 1 1 2 3 2 3 3 3 3 4 3 4 2 1 2 4 6 7 5 4 3 4 3 3 3 3 3 0 0 1 2 4
7 7 6 7 7 8 7 7 6 5 5 7 5 3 3 4 5 4 2 3 1 0 0 0 1 3 4 3 2 3 3 1 2 3 2 2 3 3 4 3 1 2 1 4 9 8 1 4 3 5 5 4 5 3 3 4 3 4 5 4 3 3 3
8 6 6 6 5 6 7 6 4 4 6 7 4 4 4 5 5 4 3 3 2 1 1 2 2 2 2 3 2 1 2 2 2 2 3 3 3 2 3 5 6 2 3 4 5 7 11 8 6 9 8 5 7 5 3 4 4 2 5 5 4 4 3
5 6 6 5 6 7 6 5 4 5 7 6 4 4 4 3 3 3 3 3 2 3 3 3 3 3 4 4 3 2 3 3 2 3 3 4 3 1 1 4 6 8 6 5 7 9 8 9 10 9 8 5 2 2 6 9 10 6 2 3 2 3 4
Wind_Direction
125 116 127 137 146 158 170 190 192 178 114 137 150 172 200 130 114 87 55 3 358 347 336 334 315 306 293 290 285 269 269 345 2 246 244 242 241 256 275 292 265 264 254 252 257 247 252 226 61 303 287 300 286 259 268 267 212 209 216 222 241 251 242
137 140 150 162 163 186 199 201 208 147 124 162 171 198 194 135 123 108 158 81 13 331 314 307 304 299 291 289 301 309 317 158 183 191 214 221 237 217 200 230 246 240 243 244 249 257 265 235 202 232 255 194 214 244 248 248 214 215 193 205 216 216 210
147 154 161 176 183 184 203 216 220 132 159 172 199 222 169 149 148 141 137 81 12 321 308 308 306 296 298 296 306 311 291 173 210 245 266 233 192 222 233 246 256 249 245 256 267 271 261 264 261 253 254 265 250 240 238 238 238 227 224 215 199 205 211
161 167 175 182 186 194 187 203 163 149 170 190 210 211 166 148 154 161 115 123 114 296 306 312 320 311 298 302 305 304 317 317 285 286 283 279 287 266 268 265 253 256 258 247 243 244 252 255 260 252 255 266 272 267 257 248 247 244 229 221 216 197 204
172 176 169 182 198 209 181 177 147 160 174 216 236 228 173 161 150 105 69 105 130 251 277 296 301 298 294 300 304 309 323 330 331 325 317 319 318 309 294 297 298 292 284 286 278 271 270 269 263 257 240 228 252 261 256 252 244 240 244 237 239 232 218
175 179 182 189 188 175 159 155 153 161 179 206 211 171 151 132 95 72 45 23 356 333 351 346 334 322 338 337 334 332 330 340 335 325 313 307 308 301 288 279 279 282 286 282 286 281 278 270 268 270 269 254 229 238 246 248 247 238 232 229 231 231 230
177 178 184 186 178 156 151 153 164 176 192 197 181 152 138 121 115 115 17 8 338 354 342 337 312 320 348 342 346 347 345 337 338 329 317 301 286 283 284 287 288 283 273 282 281 286 290 288 283 282 277 272 268 263 261 258 254 243 230 227 232 231 230
169 173 190 183 184 162 164 172 181 188 187 172 143 141 133 143 126 85 24 311 328 353 347 336 318 339 344 355 334 337 336 328 320 316 313 303 288 287 287 287 284 280 282 270 278 278 278 281 286 286 283 275 270 267 260 257 258 253 241 237 235 239 235
182 177 177 187 173 176 177 182 185 184 174 171 159 164 158 164 150 161 202 313 312 343 324 327 303 319 357 355 339 327 329 325 323 324 321 318 312 304 302 298 293 286 274 276 282 279 271 276 279 284 285 273 264 263 261 255 254 251 242 232 234 242 239
184 183 197 185 185 180 177 181 191 174 162 148 146 161 180 174 176 185 177 252 291 323 302 309 307 325 1 356 330 323 325 327 319 320 317 314 307 302 302 300 296 291 274 272 277 283 282 275 288 284 269 276 276 270 264 261 255 252 239 222 214 226 234
180 179 179 191 191 178 175 179 185 197 180 157 173 188 180 177 188 176 233 253 279 280 227 248 272 314 357 346 325 324 322 317 318 315 312 307 306 304 306 313 308 300 287 278 275 278 282 286 284 287 290 287 279 265 261 254 268 269 255 244 229 221 220
179 177 188 193 186 166 187 199 196 141 107 170 195 180 175 187 183 194 185 275 250 275 240 248 262 273 315 306 317 315 314 310 310 308 304 304 306 306 308 311 310 304 290 278 273 276 280 287 285 283 290 285 288 262 252 244 234 237 236 242 242 245 242
175 186 193 192 184 189 169 151 142 105 127 197 204 170 160 156 173 149 240 297 296 279 240 233 272 290 293 290 292 299 298 297 294 296 298 298 297 299 300 299 294 287 280 276 273 280 285 286 289 295 296 297 300 295 261 259 254 253 245 238 242 251 258
184 171 175 155 138 158 177 169 134 138 172 174 167 157 145 151 149 167 226 282 295 306 269 235 258 290 308 306 301 290 285 283 283 288 286 283 287 292 290 293 294 288 279 274 273 276 279 288 297 302 301 302 303 306 282 245 245 247 249 254 258 258 255
149 131 116 136 161 169 165 177 183 179 181 175 161 141 138 113 357 328 319 279 284 294 277 242 256 295 305 300 289 287 281 280 279 275 279 284 285 287 296 300 302 300 297 290 285 281 284 292 294 304 307 307 308 310 305 288 270 253 272 291 284 270 265
141 142 145 160 176 186 192 190 180 182 172 179 161 154 151 178 195 240 252 273 283 286 268 252 261 281 298 288 280 282 280 271 270 274 280 284 285 289 292 300 308 308 308 307 298 291 294 295 297 300 304 310 315 315 316 315 307 318 313 287 265 263 264
158 160 176 187 191 200 202 191 181 169 162 168 179 171 180 199 189 201 237 250 269 275 267 250 276 285 278 281 279 277 278 271 260 267 278 276 283 295 302 306 310 312 314 310 301 296 296 299 305 306 305 307 312 315 322 324 332 331 312 314 306 286 264
168 178 187 195 202 202 195 173 166 162 161 177 184 187 175 168 194 205 244 254 259 258 264 271 271 274 279 264 276 277 278 267 265 272 277 286 288 299 303 300 308 307 307 306 304 305 303 302 298 298 300 300 313 319 323 333 349 334 320 315 306 297 271
188 189 190 198 200 197 180 169 168 166 175 179 182 185 191 172 184 221 238 246 251 245 258 262 258 269 276 269 265 277 274 268 273 278 280 280 282 288 295 298 296 297 302 303 304 306 306 297 296 293 298 305 324 332 337 340 347 337 333 327 314 299 293
192 191 198 198 197 189 177 168 168 177 182 186 195 193 180 183 190 217 220 231 250 243 249 245 266 258 271 269 269 269 273 272 276 282 278 277 282 285 291 292 289 285 280 282 290 297 300 298 300 294 298 309 323 329 329 333 347 336 332 330 325 319 306
189 191 194 195 191 180 170 172 175 180 186 195 198 193 185 210 215 217 227 232 246 236 234 245 257 282 276 271 270 271 277 285 280 286 288 281 277 286 287 286 289 293 293 290 291 293 287 288 302 296 297 302 316 329 330 332 342 338 336 334 329 324 316
192 178 181 189 177 177 175 176 178 180 186 198 190 196 195 209 202 193 224 230 231 240 238 243 261 280 285 272 274 277 281 283 295 296 296 288 282 286 293 299 297 297 300 297 291 277 270 280 286 288 300 306 335 333 338 333 346 342 342 341 339 329 316
176 187 181 185 172 180 187 181 177 184 179 189 198 195 212 214 198 200 217 237 242 235 251 264 281 283 277 274 278 282 283 284 287 295 296 294 291 292 299 304 306 307 305 308 299 290 277 269 278 288 294 323 346 338 331 336 350 349 350 348 349 353 342
175 171 170 177 188 170 173 182 182 183 176 191 205 213 214 211 212 210 213 222 234 237 258 269 271 267 265 267 276 281 289 292 292 296 299 299 293 292 294 294 287 284 298 307 303 297 268 262 287 311 300 330 355 335 337 338 355 358 354 356 358 1 1
166 169 176 178 171 174 184 186 181 181 174 179 212 232 209 207 207 212 226 234 237 234 242 254 253 257 259 263 266 280 293 293 297 299 301 296 290 287 293 294 289 292 303 299 302 291 275 271 289 316 312 307 353 335 342 344 353 8 1 4 6 3 2
172 183 187 171 189 176 178 177 147 139 165 187 218 220 191 192 196 216 229 243 241 237 238 240 241 243 247 256 267 275 283 293 305 304 299 291 294 297 291 290 302 308 311 324 340 319 299 279 298 310 305 312 339 354 333 341 352 17 10 12 14 360 9
183 181 170 178 180 171 163 172 168 177 188 201 200 188 181 170 180 211 221 222 216 231 234 239 248 249 243 253 266 276 286 300 299 297 295 287 286 290 302 309 306 314 328 332 339 338 333 296 280 290 290 305 320 336 334 333 353 13 39 20 15 9 15
152 128 168 172 166 154 154 153 170 186 216 228 196 190 185 176 197 223 227 226 235 240 236 237 246 247 253 259 265 282 293 296 298 293 290 305 317 324 317 315 321 317 328 322 331 340 354 354 317 272 278 285 306 321 327 329 14 351 44 45 34 16 7
152 154 152 155 159 168 152 159 172 193 208 214 209 201 197 182 209 227 227 229 243 244 241 235 236 244 251 271 286 289 289 284 282 308 329 325 323 330 317 316 326 322 330 325 327 332 350 9 338 334 312 280 289 290 309 319 344 23 358 16 36 46 23
155 158 162 176 179 182 165 167 189 202 217 216 212 210 192 185 213 227 226 239 247 251 252 250 230 249 265 279 282 290 278 280 301 328 338 334 326 328 323 320 322 320 315 321 316 321 325 6 333 348 346 320 272 281 295 307 307 351 3 354 3 19 28
170 171 176 178 188 184 173 180 191 202 217 231 235 236 219 203 212 229 237 249 243 247 249 241 218 226 249 272 272 272 282 296 324 342 340 328 325 322 323 319 327 323 320 330 321 315 304 334 336 345 325 316 282 271 290 315 311 314 316 324 344 18 12
177 180 176 167 174 181 185 188 183 186 208 235 236 233 231 219 202 228 237 259 278 269 259 241 224 212 207 246 269 278 278 316 340 329 322 307 307 277 268 264 290 309 314 327 314 298 289 312 338 320 311 292 277 273 287 291 306 311 306 295 315 353 16
180 190 183 172 190 174 175 175 181 199 210 226 236 227 234 233 216 226 262 288 287 272 242 224 210 187 198 248 313 288 18 14 285 298 307 304 319 328 331 324 327 332 332 338 334 319 308 310 321 300 285 292 281 276 278 298 297 306 307 322 325 324 6
176 179 209 194 191 178 174 186 197 211 222 239 250 232 227 233 246 239 244 271 277 309 324 189 176 169 196 210 241 270 71 194 240 231 296 308 324 350 338 333 338 340 328 323 325 332 319 315 311 289 256 270 284 278 290 284 294 300 297 327 341 328 344
188 184 172 173 188 180 187 196 206 215 217 239 242 233 239 249 258 246 226 251 282 27 127 148 175 164 204 194 211 240 195 176 230 250 265 305 339 316 276 257 305 315 313 308 150 317 306 310 298 279 241 231 247 255 268 308 296 268 174 49 75 353 322
176 175 187 191 187 195 203 208 208 214 228 243 240 229 233 248 255 262 229 221 270 147 173 292 167 184 214 231 198 212 217 277 260 255 273 295 308 327 321 300 227 213 272 320 348 359 57 189 266 297 306 266 254 228 248 254 295 29 69 58 39 359 3
172 181 186 187 186 207 212 223 228 232 242 247 246 232 227 234 243 247 244 214 175 170 219 190 168 228 255 261 292 228 196 200 258 276 274 274 290 320 324 327 327 311 217 286 359 9 2 7 319 310 312 334 317 314 253 274 302 348 68 60 26 8 6
192 187 189 193 199 203 208 224 232 233 239 251 256 256 254 253 267 260 257 243 197 165 153 168 176 205 229 236 237 222 191 203 225 255 275 293 294 327 13 352 337 326 336 15 17 6 15 10 3 349 328 353 70 26 322 332 326 312 72 75 47 21 14